Location: Lane
(33.5226°N, 79.8788°W)
Time: 00:14:41
(UTC+00:00)

Vanguard 1 Rocket - Pass Details

Date: 09 October 2022
Orbit: 650 x 4225 km, 34.3° (Epoch: 05 December)

Event Time Altitude Azimuth Distance (km) Brightness Sun altitude
Rises 23:01:52 0° 243° (WSW) 8,349 13.9 -2.6°
Reaches altitude 10° 23:07:34 10° 243° (WSW) 7,414 13.4 -3.8°
Maximum altitude 23:33:46 80° 161° (SSE) 3,569 10.3 -9.2°
Enters shadow 23:49:10 13° 78° (ENE) 4,800 10.4 -12.5°
